Juliana Airport, Sint Maarten

9:42 PM AST on August 17, 2017 (GMT -0400)
Princess Juliana International

Weather History for TNCM - March, 2014

Change the Weather History Date:

Monday, March 10, 2014

  Actual Average Record
Temperature  
Mean Temperature 79 °F -  
Max Temperature 83 °F 82 °F 84 °F (1998)
Min Temperature 75 °F 73 °F 69 °F (2008)
Cooling Degree Days 14    
Growing Degree Days 29 (Base 50)    
Moisture  
Dew Point 68 °F    
Average Humidity 67    
Maximum Humidity 78    
Minimum Humidity 50    
Precipitation  
Precipitation 0.00 in 0.07 in - ()
Sea Level Pressure  
Sea Level Pressure 29.99 in    
Wind  
Wind Speed 3 mph ()    
Max Wind Speed 7 mph    
Max Gust Speed -    
Visibility 6.2 miles    
Events      
Averages and records for this station are not official NWS values.
T = Trace of Precipitation, MM = Missing Value Source: Averaged Metar Reports

Daily Weather History Graph

Daily Weather History Graph

Search for Another Location

Airport or City:

Trip Planner

Search our weather history database for the weather conditions in past years. The results will help you decide how hot, cold, wet, or windy it might be!

Date:

Astronomy

Mar. 10, 2014 Rise Set
Actual Time 6:24 AM AST 6:21 PM AST
Civil Twilight 6:02 AM AST 6:42 PM AST
Nautical Twilight 5:37 AM AST 7:08 PM AST
Astronomical Twilight 5:12 AM AST 7:33 PM AST
Moon 1:33 PM AST (3/10) 1:59 AM AST (3/10)
Length of Visible Light 12h 40m
Length of Day
11h 56m
Waxing Gibbous, 70% of the Moon is Illuminated
Mar 10
Waxing Gibbous
Mar 16
Full
Mar 23
Last Quarter
Mar 30
New
Apr 7
First Quarter

Hourly Weather History & Observations

Time (AST) Temp. Heat Index Dew Point Humidity Pressure Visibility Wind Dir Wind Speed Gust Speed Precip Events Conditions
12:00 AM 77.0 °F - 68.0 °F 74% 30.01 in 6.2 mi ENE 3.5 mph - N/A   Partly Cloudy
1:00 AM 77.0 °F - 68.0 °F 74% 30.01 in 6.2 mi Variable 2.3 mph - N/A   Partly Cloudy
2:00 AM 76 °F - 69 °F 74% 29.99 in 28 mi ENE 3.5 mph - -   Partly Cloudy
2:00 AM 77.0 °F - 69.8 °F 78% 29.98 in 6.2 mi ENE 3.5 mph - N/A   Scattered Clouds
3:00 AM 75.2 °F - 68.0 °F 78% 29.95 in 6.2 mi Variable 2.3 mph - N/A   Scattered Clouds
4:00 AM 75.2 °F - 68.0 °F 78% 29.95 in 6.2 mi East 2.3 mph - N/A   Mostly Cloudy
5:00 AM - - - %  in 28 mi ESE 2.3 mph - -  
5:00 AM 77.0 °F - 68.0 °F 74% 29.95 in 6.2 mi Variable 2.3 mph - N/A   Mostly Cloudy
6:00 AM 77.0 °F - 68.0 °F 74% 29.98 in 6.2 mi ESE 2.3 mph - N/A   Mostly Cloudy
7:00 AM 77.0 °F - 68.0 °F 74% 29.98 in 6.2 mi SE 5.8 mph - N/A   Mostly Cloudy
8:00 AM 79 °F - 69 °F 63% 30.01 in 40 mi SE 6.9 mph - -   Scattered Clouds
8:00 AM 78.8 °F - 68.0 °F 69% 30.01 in 6.2 mi SE 6.9 mph - N/A   Partly Cloudy
9:00 AM 78.8 °F - 68.0 °F 69% 30.01 in 6.2 mi SE 6.9 mph - N/A   Partly Cloudy
10:00 AM 80.6 °F 83.2 °F 68.0 °F 65% 30.04 in 6.2 mi SSE 5.8 mph - N/A   Partly Cloudy
11:00 AM 81 °F - 68 °F 56% 30.05 in 40 mi SSE 5.8 mph - -   Scattered Clouds
11:00 AM 80.6 °F 83.2 °F 68.0 °F 65% 30.04 in 6.2 mi SSE 5.8 mph - N/A   Partly Cloudy
12:00 PM 82.4 °F 85.4 °F 68.0 °F 62% 30.01 in 6.2 mi SSE 5.8 mph - N/A   Scattered Clouds
1:00 PM 82.4 °F 84.6 °F 66.2 °F 58% 29.98 in 6.2 mi South 4.6 mph - N/A   Scattered Clouds
2:00 PM 82 °F - 67 °F 50% 29.98 in 40 mi SSW 3.5 mph - -   Scattered Clouds
2:00 PM 82.4 °F 84.6 °F 66.2 °F 58% 29.98 in 6.2 mi Variable 2.3 mph - N/A   Scattered Clouds
3:00 PM 82.4 °F 84.6 °F 66.2 °F 58% 29.95 in 6.2 mi SSE 4.6 mph - N/A   Scattered Clouds
4:00 PM 82.4 °F 84.6 °F 66.2 °F 58% 29.95 in - North - - N/A   Partly Cloudy
5:00 PM 80 °F - 66 °F 54% 29.96 in 47 mi 3.5 mph - -   Mostly Cloudy
5:00 PM 80.6 °F 82.7 °F 66.2 °F 61% 29.95 in 6.2 mi Variable 2.3 mph - N/A   Mostly Cloudy
6:00 PM 80.6 °F 82.7 °F 66.2 °F 61% 29.95 in 6.2 mi Variable 2.3 mph - N/A   Scattered Clouds
7:00 PM 78.8 °F - 68.0 °F 69% 29.98 in 6.2 mi Variable 2.3 mph - N/A   Scattered Clouds
8:00 PM 78 °F - 67 °F 62% 29.99 in 44 mi NE 5.8 mph - -   Mostly Cloudy
8:00 PM 78.8 °F - 68.0 °F 69% 29.98 in 6.2 mi NNE 4.6 mph - N/A   Mostly Cloudy
9:00 PM 77.0 °F - 68.0 °F 74% 29.98 in 6.2 mi East 3.5 mph - N/A   Partly Cloudy
10:00 PM 77.0 °F - 68.0 °F 74% 30.01 in - Variable 2.3 mph - N/A   Clear
11:00 PM 76 °F - 67 °F 67% 30.01 in 44 mi ENE 3.5 mph - -   Scattered Clouds
11:00 PM 77.0 °F - 68.0 °F 74% 30.01 in 6.2 mi ENE 3.5 mph - N/A   Partly Cloudy